Meteo Giornale » Osservazioni meteo Italia » Capo Mele

ore: 07:55 - Osservazioni Meteo Capo Mele
Lat. 43° 57' N Lon. 8° 10' E Alt. 220 metri s.l.m.

sereno Europe/Rome

11 °C

Sereno

Temp. 24 Ore

8 °C

12 °C

Nord/Nord-Est

14.8 Km/h

Dew point -5 °C

Umidità 32 %

Visibilità  10 Km

Il sole sorge alle ore 07:52

Il sole tramonta alle ore 17:25

Data e Ora Cielo e Fenomeni T °C DP °C Um. % Pres. hPa Vis. km Vento km/h
Oggi h: 07:55 sereno Sereno 11 -5 32 1033 10 N/NE 14.8
Oggi h: 06:55 sereno Sereno 11 -6 29 1033 10 N/NE 14.8
Oggi h: 05:55 sereno Sereno 11 -5 32 1033 10 N/NE 14.8
Oggi h: 04:55 sereno Sereno 11 -5 32 1034 10 N 11.1
Oggi h: 03:55 sereno Sereno 11 -5 32 1034 10 N/NE 14.8
Oggi h: 02:55 sereno Sereno 11 -5 32 1034 10 N 11.1
Oggi h: 01:55 sereno Sereno 11 -5 32 1035 10 N 14.8
Oggi h: 00:55 sereno Sereno 10 -6 31 1035 10 N/NE 14.8
Ieri h: 20:55 sereno Sereno 10 -7 29 1034 10 N 18.5
Ieri h: 19:55 sereno Sereno 10 -6 31 1035 10 N/NE 18.5
Ieri h: 18:55 sereno Sereno 11 -6 29 1035 10 N/NE 16.7
Ieri h: 17:55 sereno Sereno 10 -6 31 1035 10 N 24
Ieri h: 16:55 sereno Sereno 11 -4 34 1035 10 N/NE 22.2
Ieri h: 14:55 sereno Sereno 12 -4 32 1036 10 N/NE 18.5
Ieri h: 12:55 sereno Sereno 12 -4 32 1037 10 N/NE 18.5
Ieri h: 11:55 sereno Sereno 11 -4 34 1038 10 N/NE 22.2
Ieri h: 10:55 sereno Sereno 9 -6 33 1037 10 N/NE 33.3
Ieri h: 09:55 sereno Sereno 9 -6 33 1037 10 N/NE 37
Ieri h: 08:55 sereno Sereno 8 -7 33 1037 10 N 37
Ieri h: 07:55 sereno Sereno 8 -6 36 1037 10 NE 37